Vorticity
7 7 7 7 6 7 6 6 6 6 8 5 4 6 5 5 5 4 5 5 3 1 4 5 1 7 10 13 6 10 8 10 10 9 8 9 9 9
6 5 6 7 7 7 7 6 5 6 5 5 5 6 6 5 5 6 5 4 2 2 3 7 -4 13 5 12 11 12 12 10 8 8 9 8 8 7
6 4 6 7 9 6 5 5 6 6 5 6 5 5 6 6 6 5 2 3 6 4 -0 6 5 13 8 18 12 9 8 8 8 8 9 8 7 6
5 5 6 6 6 5 5 5 6 6 6 6 5 6 7 6 4 5 5 5 5 3 1 8 11 11 20 10 7 8 9 8 9 8 7 6 7 7
8 7 8 6 5 6 6 6 6 7 7 7 7 6 6 5 5 5 6 7 -2 2 8 11 15 16 9 7 9 8 7 7 7 6 6 6 7 8
10 9 9 7 6 7 7 8 8 8 7 7 7 6 6 5 5 6 5 1 2 9 10 22 11 8 8 8 8 8 8 7 7 7 7 7 9 11
7 8 8 10 9 9 8 9 8 9 8 6 6 6 6 6 5 6 1 9 12 12 20 12 8 7 8 8 8 8 7 6 6 5 7 8 8 11
7 9 9 9 8 7 7 8 7 6 5 4 5 6 6 7 8 -16 20 13 12 18 11 7 8 9 7 7 8 8 6 7 6 7 9 10 12 10
8 7 6 7 7 8 5 4 5 5 4 5 7 7 8 1 5 14 11 9 19 10 10 9 7 6 9 8 8 7 6 6 7 9 10 9 9 10
11 6 5 5 5 5 6 5 7 7 7 8 6 6 1 8 13 10 14 19 11 11 8 7 7 8 9 8 8 8 8 8 8 11 10 11 13 12
-4 -5 5 4 4 4 5 5 5 7 8 7 11 -5 8 11 11 12 19 14 10 7 8 7 6 8 8 9 9 9 9 11 12 11 11 12 11 10
24 1 5 6 8 12 8 -17 -2 8 11 0 -9 25 13 8 7 19 15 3 8 8 6 6 9 6 5 6 9 11 12 11 11 11 13 12 11 10
18 38 42 15 7 13 22 11 3 -3 -3 13 23 10 7 5 19 13 13 13 9 5 8 8 6 6 5 8 8 12 10 11 11 10 11 12 12 13
3 4 11 15 18 17 16 11 9 12 21 20 10 7 3 18 14 18 10 8 2 5 8 6 5 4 7 11 12 9 8 9 10 9 9 13 15 13
15 8 2 5 13 13 14 22 16 22 16 8 6 5 17 21 14 12 1 2 9 8 7 6 5 8 12 12 9 9 9 9 9 10 12 15 14 13
-3 8 14 8 6 11 11 15 17 12 10 6 8 21 19 11 7 1 6 8 8 8 6 5 9 12 11 11 10 10 10 10 11 12 11 12 10 15
8 23 16 18 11 16 13 13 12 11 4 16 22 14 12 2 3 7 9 8 6 5 5 11 11 10 10 10 10 10 11 11 10 12 12 8 11 12
14 11 19 14 12 19 17 14 4 6 17 19 15 9 4 3 7 8 7 6 7 7 10 12 9 10 9 11 11 10 11 11 11 13 10 7 11 17
18 20 24 22 16 14 5 4 14 20 19 11 2 2 4 7 8 7 7 6 7 10 12 10 7 10 9 11 16 13 10 11 12 11 9 8 12 14
20 19 14 8 5 4 12 20 19 13 7 3 5 6 7 8 8 7 6 5 10 12 10 8 9 10 11 10 12 14 12 11 10 9 10 7 9 11
8 4 3 4 9 14 13 12 9 4 3 6 7 7 8 7 7 6 7 9 11 11 10 10 10 12 11 10 10 11 14 12 9 10 10 10 10 10
9 10 9 12 18 18 10 3 4 6 7 7 7 7 7 7 7 7 8 11 11 9 10 13 12 11 10 8 10 11 11 12 9 10 10 11 10 8
7 11 14 13 8 4 4 6 7 7 7 6 7 7 8 8 7 8 11 11 9 11 12 12 11 9 10 9 10 10 12 11 9 13 8 12 11 10
Height
3068 3075 3080 3084 3088 3092 3096 3099 3103 3107 3110 3113 3114 3116 3118 3119 3120 3120 3121 3120 3119 3117 3115 3113 3110 3107 3104 3101 3098 3094 3092 3089 3085 3082 3079 3076 3074 3070
3058 3065 3070 3076 3080 3085 3089 3093 3096 3100 3103 3106 3108 3110 3111 3113 3114 3114 3114 3113 3111 3109 3107 3105 3102 3100 3096 3093 3089 3087 3085 3081 3078 3075 3072 3069 3065 3062
3049 3056 3061 3068 3073 3078 3082 3086 3089 3093 3096 3099 3101 3103 3105 3106 3107 3107 3106 3105 3103 3102 3099 3097 3094 3090 3087 3084 3081 3079 3075 3072 3070 3066 3063 3060 3056 3052
3040 3047 3054 3059 3064 3070 3074 3079 3082 3086 3089 3092 3094 3096 3098 3099 3099 3098 3098 3096 3094 3093 3090 3087 3083 3081 3078 3075 3073 3070 3067 3064 3061 3058 3054 3051 3046 3043
3035 3041 3049 3052 3057 3062 3067 3071 3076 3079 3082 3084 3086 3088 3089 3090 3090 3091 3090 3089 3087 3084 3081 3078 3075 3073 3070 3068 3065 3062 3059 3055 3052 3048 3044 3040 3036 3033
3028 3036 3041 3046 3051 3055 3060 3065 3068 3071 3074 3076 3078 3080 3081 3082 3082 3082 3082 3081 3077 3075 3072 3071 3067 3064 3063 3060 3057 3054 3051 3047 3043 3039 3035 3031 3026 3021
3020 3027 3033 3039 3044 3048 3051 3056 3060 3063 3066 3068 3070 3071 3072 3073 3074 3076 3074 3071 3069 3066 3064 3062 3059 3058 3055 3052 3048 3045 3041 3037 3034 3029 3025 3020 3015 3010
3012 3019 3025 3030 3035 3039 3044 3047 3051 3054 3057 3059 3061 3062 3064 3066 3067 3065 3064 3062 3060 3058 3056 3054 3053 3050 3047 3043 3040 3037 3033 3029 3024 3019 3014 3009 3004 2998
3006 3011 3016 3020 3025 3030 3034 3038 3041 3045 3047 3049 3052 3054 3056 3057 3057 3056 3054 3052 3050 3048 3049 3049 3045 3043 3040 3036 3033 3029 3024 3018 3013 3009 3004 2998 2992 2987
2998 3002 3006 3011 3016 3021 3027 3029 3034 3037 3040 3042 3045 3045 3046 3048 3046 3045 3043 3042 3041 3040 3040 3040 3038 3035 3033 3029 3025 3021 3014 3008 3003 2998 2992 2987 2982 2976
2989 2994 2998 3003 3009 3014 3017 3020 3024 3029 3032 3034 3035 3035 3039 3036 3037 3036 3035 3034 3034 3033 3032 3030 3028 3025 3024 3022 3018 3010 3005 2999 2995 2989 2983 2977 2972 2965
2983 2986 2991 2995 3000 3003 3007 3010 3015 3020 3023 3023 3026 3029 3028 3028 3028 3027 3026 3026 3026 3025 3024 3023 3019 3016 3013 3011 3008 3002 2996 2991 2986 2979 2973 2967 2962 2954
2974 2979 2983 2988 2992 2995 2998 3002 3007 3009 3012 3017 3018 3018 3017 3019 3018 3018 3018 3018 3018 3018 3016 3013 3011 3008 3004 2997 2998 2993 2986 2982 2977 2970 2965 2959 2953 2944
2969 2974 2977 2981 2984 2987 2990 2994 2997 3001 3004 3006 3008 3008 3009 3009 3009 3011 3011 3011 3011 3009 3006 3002 3000 2997 2992 2989 2985 2982 2976 2970 2963 2958 2952 2947 2943 2936
2963 2966 2971 2973 2976 2980 2983 2987 2989 2993 2995 2997 2997 2999 3000 3001 3001 3002 3003 3003 3002 3000 2998 2994 2991 2988 2983 2977 2972 2968 2961 2958 2952 2946 2941 2936 2930 2924
2955 2958 2961 2964 2969 2971 2974 2979 2980 2983 2985 2987 2989 2991 2992 2993 2994 2995 2995 2994 2993 2992 2988 2985 2983 2980 2975 2969 2962 2956 2952 2948 2942 2937 2931 2926 2922 2915
2947 2949 2952 2956 2960 2963 2968 2971 2972 2975 2978 2981 2982 2984 2986 2987 2987 2988 2987 2987 2985 2983 2981 2976 2972 2971 2967 2962 2956 2948 2943 2940 2934 2929 2923 2917 2914 2907
2936 2940 2945 2949 2953 2958 2961 2963 2965 2968 2971 2974 2977 2979 2979 2980 2981 2981 2979 2977 2978 2972 2972 2969 2967 2963 2960 2956 2949 2942 2937 2931 2926 2922 2915 2907 2906 2901
2930 2934 2938 2942 2948 2952 2955 2957 2959 2962 2965 2969 2971 2973 2972 2973 2974 2973 2972 2971 2967 2964 2962 2960 2958 2955 2951 2948 2948 2937 2928 2924 2919 2915 2908 2901 2895 2892
2924 2930 2933 2938 2943 2947 2950 2953 2956 2958 2961 2963 2965 2968 2967 2966 2965 2965 2963 2960 2958 2957 2955 2951 2948 2946 2942 2936 2933 2934 2924 2916 2910 2905 2900 2895 2889 2885
2923 2925 2929 2935 2939 2941 2945 2948 2951 2954 2956 2959 2959 2959 2959 2958 2959 2956 2953 2951 2950 2950 2948 2945 2941 2938 2933 2928 2925 2922 2919 2910 2903 2897 2893 2886 2881 2876
2919 2923 2927 2931 2935 2938 2941 2943 2948 2951 2952 2953 2954 2953 2952 2952 2951 2948 2946 2944 2942 2942 2941 2938 2934 2930 2925 2921 2917 2913 2910 2906 2901 2896 2891 2883 2873 2866
2917 2921 2925 2928 2931 2934 2938 2942 2945 2945 2947 2948 2947 2946 2945 2944 2942 2940 2938 2937 2935 2934 2931 2930 2926 2922 2918 2914 2910 2906 2902 2897 2895 2893 2891 2881 2874 2867